Content
SEND FEEDBACK

Daily
Averages
Monthly
Summary
United States of America

ROCK HILL, NEW YORK


Home > North America > United States > New York
Elevation: 1260 feet     Latitude: 41 35N     Longitude: 074 37W

WEATHER
 
SELECT A DAY
Number of Records: 443,230;   Date Range: 1/1/95 - 7/22/14
 
SHARE

PRINT THIS DATA

[ ← Previous Day ]
WEATHER ALMANAC - JANUARY 4, 2014
[ Next Day → ]
[ °C ]   °F
Weather ElementAverageHighLow
Temperature5.7 °F21.2 °F (1:55 pm)-9.4 °F (3:55 am)
Dewpoint-4.6 °F3.2 °F (2:35 pm)-16.6 °F (12:35 am)
Humidity64.6 %92 % (3:15 am)42 % (12:55 pm)
Barometer30.28 in30.36 in (8:15 am)30.20 in (11:55 pm)
Wind Speed3.7 mph11.5 mph (2:55 pm)
Wind Gust17.3 mph (2:35 pm)
Weather ElementAverage
Visibility10 mi
Wind DirectionESE (103.7 °)

Weather ElementTotal
Precipitation---
Heating Degree Days59.1 (Base 65)
Averaged from 71 records on January 4, 2014
WEATHER CONDITIONS BREAKOUT
WIND DIRECTION BREAKOUT
WEATHER BY HOUR - JANUARY 4, 2014
[ °C ]   °F
Local TimeTemperatureDewpointHumidityBarometerVisibilityWind DirectionWind SpeedGust SpeedPrecipitationEventsConditions
12:35 AM-7.6 °F-16.6 °F65 %30.33 in10.0 miCalmClear
12:55 AM-7.6 °F-11.2 °F84 %30.32 in10.0 miCalmClear
1:15 AM-7.6 °F-11.2 °F84 %30.32 in10.0 miWest (270°)3.5 mphClear
1:35 AM-7.6 °F-14.8 °F71 %30.31 in10.0 miWest (270°)4.6 mphClear
1:55 AM-7.6 °F-11.2 °F84 %30.32 in10.0 miWest (270°)3.5 mphClear
2:15 AM-7.6 °F-11.2 °F84 %30.32 in10.0 miCalmClear
2:35 AM-7.6 °F-11.2 °F84 %30.33 in10.0 miWest (280°)4.6 mphClear
2:55 AM-7.6 °F-14.8 °F71 %30.33 in10.0 miWest (270°)3.5 mphClear
3:15 AM-7.6 °F-9.4 °F92 %30.34 in10.0 miSW (230°)4.6 mphClear
3:35 AM-7.6 °F-14.8 °F71 %30.32 in10.0 miCalmClear
3:55 AM-9.4 °F-16.6 °F71 %30.32 in10.0 miCalmClear
4:15 AM-9.4 °F-14.8 °F77 %30.32 in10.0 miCalmClear
4:35 AM-9.4 °F-16.6 °F71 %30.31 in10.0 miCalmScattered Clouds
4:55 AM-7.6 °F-11.2 °F84 %30.32 in10.0 miCalmOvercast
5:15 AM-7.6 °F-11.2 °F84 %30.33 in10.0 miCalmOvercast
5:35 AM-7.6 °F-13.0 °F77 %30.34 in10.0 miCalmMostly Cloudy
5:55 AM-5.8 °F-11.2 °F77 %30.35 in10.0 miCalmMostly Cloudy
6:15 AM-7.6 °F-13.0 °F77 %30.33 in10.0 miESE (120°)4.6 mphOvercast
6:35 AM-7.6 °F-13.0 °F77 %30.33 in10.0 miCalmScattered Clouds
6:55 AM-7.6 °F-11.2 °F84 %30.33 in10.0 miCalmClear
7:15 AM-7.6 °F-13.0 °F77 %30.34 in10.0 miCalmClear
7:35 AM-7.6 °F-14.8 °F71 %30.35 in10.0 miNorth (10°)3.5 mphClear
7:55 AM-5.8 °F-9.4 °F84 %30.35 in10.0 miCalmClear
8:15 AM-5.8 °F-9.4 °F84 %30.36 in10.0 miCalmClear
8:35 AM-5.8 °F-11.2 °F77 %30.36 in10.0 miCalmClear
8:55 AM-2.2 °F-7.6 °F78 %30.36 in10.0 miCalmClear
9:15 AM-0.4 °F-5.8 °F78 %30.36 in10.0 miCalmClear
9:35 AM1.4 °F-5.8 °F72 %30.36 in10.0 miSE (140°)3.5 mphClear
9:55 AM5.0 °F-5.8 °F61 %30.35 in10.0 miSSE (160°)3.5 mphClear
10:15 AM6.8 °F-5.8 °F56 %30.35 in10.0 miSE (130°)3.5 mphClear
10:35 AM6.8 °F-4.0 °F61 %30.35 in10.0 miCalmClear
10:55 AM12.2 °F-2.2 °F53 %30.33 in10.0 miSW (230°)4.6 mphClear
11:15 AM14.0 °F-2.2 °F49 %30.32 in10.0 miSouth (180°)3.5 mphClear
11:35 AM15.8 °F-2.2 °F45 %30.31 in10.0 miSouth (180°)9.2 mphClear
11:55 AM15.8 °F-2.2 °F45 %30.29 in10.0 miSouth (180°)9.2 mphClear
12:15 PM17.6 °F-0.4 °F45 %30.27 in10.0 miSW (220°)8.1 mphClear
12:35 PM17.6 °F-0.4 °F45 %30.26 in10.0 miSouth (180°)10.4 mphClear
12:55 PM19.4 °F-0.4 °F42 %30.24 in10.0 miSouth (180°)9.2 mphClear
1:15 PM19.4 °F-0.4 °F42 %30.23 in10.0 miSouth (190°)9.2 mphClear
1:35 PM19.4 °F1.4 °F46 %30.23 in10.0 miSSW (210°)5.8 mphClear
1:55 PM21.2 °F1.4 °F42 %30.23 in10.0 miSW (220°)5.8 mphClear
2:15 PM21.2 °F1.4 °F42 %30.22 in10.0 miSouth (190°)9.2 mphClear
2:35 PM21.2 °F3.2 °F46 %30.23 in10.0 miSouth (190°)8.1 mph17.3 mphClear
2:55 PM21.2 °F1.4 °F42 %30.22 in10.0 miSSW (200°)11.5 mph17.3 mphClear
3:15 PM19.4 °F1.4 °F46 %30.22 in10.0 miSSW (200°)10.4 mphClear
3:35 PM19.4 °F1.4 °F46 %30.21 in10.0 miSouth (190°)5.8 mphClear
3:55 PM21.2 °F3.2 °F46 %30.22 in10.0 miSouth (180°)9.2 mphClear
4:15 PM19.4 °F1.4 °F46 %30.21 in10.0 miSouth (170°)8.1 mphClear
4:35 PM17.6 °F1.4 °F49 %30.21 in10.0 miSouth (180°)6.9 mphClear
4:55 PM17.6 °F1.4 °F49 %30.22 in10.0 miSouth (170°)10.4 mphClear
5:15 PM15.8 °F1.4 °F53 %30.22 in10.0 miSouth (170°)5.8 mphClear
5:35 PM15.8 °F1.4 °F53 %30.21 in10.0 miSSE (150°)5.8 mphClear
5:55 PM14.0 °F1.4 °F57 %30.22 in10.0 miSouth (170°)4.6 mphClear
6:15 PM14.0 °F1.4 °F57 %30.22 in10.0 miSouth (190°)3.5 mphClear
6:35 PM15.8 °F1.4 °F53 %30.22 in10.0 miSouth (180°)4.6 mphClear
6:55 PM12.2 °F1.4 °F62 %30.21 in10.0 miSouth (180°)3.5 mphClear
7:15 PM12.2 °F1.4 °F62 %30.22 in10.0 miCalmClear
7:35 PM12.2 °F-0.4 °F57 %30.22 in10.0 miCalmClear
7:55 PM10.4 °F1.4 °F67 %30.22 in10.0 miNE (50°)3.5 mphClear
8:15 PM10.4 °F-0.4 °F62 %30.21 in10.0 miCalmClear
8:35 PM8.6 °F1.4 °F73 %30.22 in10.0 miNNE (20°)4.6 mphClear
8:55 PM10.4 °F1.4 °F67 %30.22 in10.0 miNNE (20°)4.6 mphClear
9:15 PM10.4 °F1.4 °F67 %30.22 in10.0 miCalmClear
9:35 PM8.6 °F-0.4 °F67 %30.21 in10.0 miCalmClear
9:55 PM8.6 °F-0.4 °F67 %30.21 in10.0 miCalmClear
10:15 PM8.6 °F-0.4 °F67 %30.21 in10.0 miCalmClear
10:35 PM6.8 °F1.4 °F79 %30.21 in9.0 miNorth (10°)5.8 mphClear
10:55 PM8.6 °F-0.4 °F67 %30.21 in10.0 miNorth (10°)4.6 mphClear
11:15 PM8.6 °F1.4 °F73 %30.21 in10.0 miNNE (30°)4.6 mphClear
11:35 PM8.6 °F1.4 °F73 %30.21 in10.0 miNNE (30°)4.6 mphClear
11:55 PM6.8 °F-0.4 °F72 %30.20 in10.0 miNorth (360°)5.8 mphClear
Hourly data recorded from KMSV, located miles away from Rock Hill, New York







STORIES FROM OUR PARTNERS